Location: ??
(35.5653°N, 139.6194°E)
Time: 01:40:34
(UTC+00:00)

OAO 3 Rocket - Pass Details

Date: 20 November 2019
Orbit: 630 x 682 km, 35.0° (Epoch: 13 December)

Event Time Altitude Azimuth Distance (km) Brightness Sun altitude
Exits shadow 20:30:26 13° 267° (W) 1,900 5.0 -10.7°
Maximum altitude 20:34:22 37° 203° (SSW) 1,020 4.1 -9.9°
Drops below altitude 10° 20:38:44 10° 137° (SE) 2,040 6.8 -9.1°
Sets 20:41:12 0° 129° (SE) 2,939 8.1 -8.6°
